TimeEST,TemperatureF,Dew PointF,Humidity,Sea Level PressureIn,VisibilityMPH,Wind Direction,Wind SpeedMPH,Gust SpeedMPH,PrecipitationIn,Events,Conditions,WindDirDegrees,DateUTC
12:15 AM,17.6,10.4,73,30.60,10.0,South,5.8,-,N/A,,Clear,180,2014-01-10 05:15:00
12:35 AM,15.8,6.8,68,30.59,10.0,South,4.6,-,N/A,,Clear,190,2014-01-10 05:35:00
12:55 AM,17.6,10.4,73,30.60,10.0,South,5.8,-,N/A,,Clear,190,2014-01-10 05:55:00
1:15 AM,15.8,10.4,79,30.61,10.0,SSW,4.6,-,N/A,,Clear,200,2014-01-10 06:15:00
1:35 AM,19.4,8.6,63,30.61,10.0,SSW,5.8,-,N/A,,Clear,200,2014-01-10 06:35:00
1:55 AM,14.0,3.2,62,30.62,10.0,South,4.6,-,N/A,,Clear,180,2014-01-10 06:55:00
2:15 AM,19.4,15.8,86,30.63,10.0,SSW,5.8,-,N/A,,Clear,210,2014-01-10 07:15:00
2:35 AM,24.8,14.0,64,30.62,10.0,SSW,6.9,-,0.01,,Clear,200,2014-01-10 07:35:00
2:55 AM,23.0,12.2,63,30.59,10.0,South,5.8,-,0.01,,Clear,170,2014-01-10 07:55:00
3:15 AM,21.2,10.4,63,30.60,10.0,South,5.8,-,N/A,,Clear,190,2014-01-10 08:15:00
3:35 AM,23.0,10.4,59,30.59,10.0,South,5.8,-,N/A,,Clear,190,2014-01-10 08:35:00
3:55 AM,24.8,14.0,64,30.59,10.0,South,8.1,-,N/A,,Clear,190,2014-01-10 08:55:00
4:15 AM,26.6,12.2,55,30.58,10.0,South,9.2,-,N/A,,Clear,190,2014-01-10 09:15:00
4:35 AM,26.6,15.8,64,30.58,10.0,South,10.4,-,N/A,,Clear,180,2014-01-10 09:35:00
4:55 AM,26.6,15.8,64,30.58,10.0,SSW,10.4,-,N/A,,Clear,200,2014-01-10 09:55:00
5:15 AM,26.6,15.8,64,30.57,10.0,South,6.9,-,0.01,,Partly Cloudy,180,2014-01-10 10:15:00
5:35 AM,28.4,17.6,64,30.57,10.0,South,8.1,-,0.01,,Partly Cloudy,180,2014-01-10 10:35:00
5:55 AM,28.4,19.4,69,30.57,10.0,South,9.2,-,0.01,,Partly Cloudy,180,2014-01-10 10:55:00
6:15 AM,28.4,19.4,69,30.57,10.0,South,10.4,-,N/A,,Mostly Cloudy,190,2014-01-10 11:15:00
6:35 AM,30.2,19.4,64,30.56,10.0,South,10.4,16.1,N/A,,Mostly Cloudy,190,2014-01-10 11:35:00
6:55 AM,30.2,21.2,69,30.55,10.0,South,10.4,16.1,N/A,,Scattered Clouds,180,2014-01-10 11:55:00
7:15 AM,30.2,21.2,69,30.54,10.0,South,10.4,16.1,N/A,,Mostly Cloudy,180,2014-01-10 12:15:00
7:35 AM,30.2,24.8,80,30.53,10.0,South,10.4,16.1,N/A,,Overcast,180,2014-01-10 12:35:00
7:55 AM,30.2,24.8,80,30.53,10.0,South,11.5,19.6,N/A,,Overcast,180,2014-01-10 12:55:00
8:15 AM,30.2,26.6,86,30.53,1.5,South,11.5,17.3,N/A,,Overcast,180,2014-01-10 13:15:00
8:35 AM,30.2,28.4,93,30.53,2.5,South,9.2,-,N/A,,Overcast,190,2014-01-10 13:35:00
8:55 AM,30.2,30.2,100,30.52,4.0,SSW,10.4,-,0.01,,Overcast,200,2014-01-10 13:55:00
9:15 AM,32.0,30.2,93,30.52,10.0,SSW,8.1,-,N/A,,Overcast,200,2014-01-10 14:15:00
9:35 AM,32.0,30.2,93,30.53,10.0,South,10.4,-,N/A,,Overcast,190,2014-01-10 14:35:00
9:55 AM,32.0,30.2,93,30.52,10.0,South,9.2,-,N/A,,Overcast,190,2014-01-10 14:55:00
10:15 AM,32.0,30.2,93,30.52,9.0,SSW,6.9,-,N/A,,Overcast,200,2014-01-10 15:15:00
10:35 AM,33.8,30.2,87,30.51,10.0,SSW,8.1,-,N/A,,Overcast,200,2014-01-10 15:35:00
10:55 AM,33.8,30.2,87,30.50,10.0,SSW,9.2,-,N/A,,Overcast,200,2014-01-10 15:55:00
11:15 AM,33.8,30.2,87,30.49,10.0,South,6.9,-,N/A,,Overcast,190,2014-01-10 16:15:00
11:35 AM,33.8,30.2,87,30.47,10.0,South,8.1,-,N/A,,Overcast,180,2014-01-10 16:35:00
11:55 AM,33.8,32.0,93,30.46,10.0,South,6.9,-,N/A,,Overcast,190,2014-01-10 16:55:00
12:15 PM,33.8,30.2,87,30.44,10.0,South,6.9,-,N/A,,Overcast,170,2014-01-10 17:15:00
12:35 PM,33.8,32.0,93,30.44,10.0,South,6.9,-,N/A,,Overcast,180,2014-01-10 17:35:00
12:55 PM,33.8,30.2,87,30.42,10.0,South,9.2,-,N/A,,Overcast,170,2014-01-10 17:55:00
1:15 PM,35.6,30.2,81,30.42,10.0,South,5.8,-,N/A,,Overcast,180,2014-01-10 18:15:00
1:35 PM,35.6,32.0,87,30.42,10.0,South,6.9,-,N/A,,Overcast,180,2014-01-10 18:35:00
1:55 PM,35.6,33.8,93,30.41,10.0,South,9.2,-,N/A,,Overcast,190,2014-01-10 18:55:00
2:15 PM,37.4,33.8,87,30.41,10.0,SSW,10.4,-,N/A,,Overcast,200,2014-01-10 19:15:00
2:35 PM,37.4,33.8,87,30.41,10.0,SSW,9.2,-,N/A,,Overcast,200,2014-01-10 19:35:00
2:55 PM,37.4,33.8,87,30.41,10.0,SSW,10.4,-,N/A,,Overcast,200,2014-01-10 19:55:00
3:15 PM,37.4,33.8,87,30.41,10.0,South,8.1,-,N/A,,Overcast,190,2014-01-10 20:15:00
3:35 PM,37.4,33.8,87,30.40,10.0,South,8.1,-,N/A,,Overcast,190,2014-01-10 20:35:00
3:55 PM,37.4,33.8,87,30.40,10.0,South,9.2,-,N/A,,Overcast,190,2014-01-10 20:55:00
4:15 PM,37.4,33.8,87,30.39,10.0,South,9.2,-,N/A,,Overcast,190,2014-01-10 21:15:00
4:35 PM,37.4,35.6,93,30.39,10.0,South,9.2,-,N/A,,Overcast,180,2014-01-10 21:35:00
4:55 PM,37.4,35.6,93,30.38,10.0,South,8.1,-,N/A,,Overcast,180,2014-01-10 21:55:00
5:15 PM,37.4,33.8,87,30.38,10.0,South,11.5,-,N/A,,Overcast,180,2014-01-10 22:15:00
5:35 PM,37.4,33.8,87,30.38,10.0,South,10.4,-,N/A,,Overcast,190,2014-01-10 22:35:00
5:55 PM,37.4,35.6,93,30.38,10.0,South,9.2,-,N/A,,Overcast,190,2014-01-10 22:55:00
6:15 PM,37.4,35.6,93,30.37,4.0,South,9.2,-,N/A,,Overcast,190,2014-01-10 23:15:00
6:35 PM,37.4,35.6,93,30.38,3.0,SSW,11.5,-,N/A,,Overcast,200,2014-01-10 23:35:00
6:55 PM,37.4,35.6,93,30.39,5.0,SSW,11.5,-,N/A,,Overcast,210,2014-01-10 23:55:00
7:15 PM,37.4,37.4,100,30.39,5.0,SSW,11.5,18.4,N/A,,Overcast,200,2014-01-11 00:15:00
7:35 PM,37.4,35.6,93,30.38,6.0,South,10.4,16.1,N/A,,Overcast,190,2014-01-11 00:35:00
7:55 PM,37.4,35.6,93,30.38,4.0,South,10.4,-,N/A,,Overcast,190,2014-01-11 00:55:00
8:15 PM,37.4,35.6,93,30.37,5.0,South,10.4,-,N/A,,Overcast,190,2014-01-11 01:15:00
8:35 PM,37.4,37.4,100,30.36,7.0,South,10.4,-,N/A,,Overcast,180,2014-01-11 01:35:00
8:55 PM,37.4,35.6,93,30.36,8.0,South,9.2,-,N/A,,Overcast,180,2014-01-11 01:55:00
9:15 PM,37.4,35.6,93,30.36,10.0,South,9.2,-,N/A,,Overcast,180,2014-01-11 02:15:00
9:35 PM,37.4,37.4,100,30.35,10.0,South,8.1,-,N/A,,Overcast,190,2014-01-11 02:35:00
9:55 PM,37.4,37.4,100,30.34,10.0,South,6.9,-,N/A,,Overcast,170,2014-01-11 02:55:00
10:15 PM,37.4,37.4,100,30.33,10.0,South,5.8,-,N/A,,Overcast,170,2014-01-11 03:15:00
10:35 PM,37.4,37.4,100,30.33,10.0,South,8.1,-,N/A,,Overcast,170,2014-01-11 03:35:00
10:55 PM,37.4,35.6,93,30.31,10.0,SSE,8.1,-,N/A,,Overcast,160,2014-01-11 03:55:00
11:15 PM,39.2,37.4,93,30.31,10.0,South,8.1,-,N/A,,Overcast,170,2014-01-11 04:15:00
11:35 PM,39.2,37.4,93,30.29,10.0,South,8.1,-,N/A,,Overcast,170,2014-01-11 04:35:00
11:55 PM,39.2,37.4,93,30.29,10.0,South,9.2,-,N/A,,Overcast,180,2014-01-11 04:55:00